Orange City, IA

8:46 AM CST on February 06, 2016 (GMT -0600)
Orange City Municipal

Weather History for KORC - August, 2013

Change the Weather History Date:

Saturday, August 24, 2013

  Actual Average (KSUX) Record (KSUX)
Temperature  
Mean Temperature 79 °F 71 °F  
Max Temperature 87 °F 83 °F 108 °F (1936)
Min Temperature 71 °F 60 °F 42 °F (1928)
Degree Days  
Heating Degree Days 0 1  
Month to date heating degree days 2  
Since 1 June heating degree days 32  
Since 1 July heating degree days 5  
Cooling Degree Days 14 7  
Month to date cooling degree days 192  
Year to date cooling degree days 737  
Since 1 June cooling degree days 673  
Growing Degree Days 29 (Base 50)    
Moisture  
Dew Point 69 °F    
Average Humidity 75    
Maximum Humidity 88    
Minimum Humidity 58    
Precipitation  
Precipitation 0.43 in 0.10 in 1.06 in (1900)
Month to date precipitation 2.48  
Year to date precipitation 19.79  
Snow  
Snow 0.00 in 0.00 in 0.00 in ()
Month to date snowfall 0.0  
Since 1 June snowfall 0.0  
Since 1 July snowfall 0.0  
Snow Depth -    
Sea Level Pressure  
Sea Level Pressure 30.01 in    
Wind  
Wind Speed 9 mph (South)    
Max Wind Speed 23 mph    
Max Gust Speed 29 mph    
Visibility 9 miles    
Events Rain    
T = Trace of Precipitation, MM = Missing Value Source: NWS Daily Summary

Daily Weather History Graph

Daily Weather History Graph

Search for Another Location

Airport or City:

Trip Planner

Search our weather history database for the weather conditions in past years. The results will help you decide how hot, cold, wet, or windy it might be!

Date:

Astronomy

Aug. 24, 2013 Rise Set
Actual Time 6:40 AM CDT 8:11 PM CDT
Civil Twilight 6:10 AM CDT 8:41 PM CDT
Nautical Twilight 5:34 AM CDT 9:17 PM CDT
Astronomical Twilight 4:55 AM CDT 9:55 PM CDT
Moon 9:58 PM CDT (8/24) 10:49 AM CDT (8/24)
Length of Visible Light 14h 31m
Length of Day
13h 31m
Waning Gibbous, 84% of the Moon is Illuminated
Aug 24
Waning Gibbous
Aug 28
Last Quarter
Sep 5
New
Sep 12
First Quarter
Sep 19
Full

Hourly Weather History & Observations

Time (CDT) Temp. Heat Index Dew Point Humidity Pressure Visibility Wind Dir Wind Speed Gust Speed Precip Events Conditions
12:15 AM 73.4 °F - 64.4 °F 73% 30.01 in 10.0 mi SE 5.8 mph - N/A   Clear
12:35 AM 73.4 °F - 66.2 °F 78% 30.02 in 10.0 mi SE 3.5 mph - N/A   Clear
12:55 AM 73.4 °F - 66.2 °F 78% 30.02 in 10.0 mi SE 3.5 mph - N/A   Clear
1:15 AM 71.6 °F - 66.2 °F 83% 30.03 in 10.0 mi SE 3.5 mph - N/A   Clear
1:35 AM 73.4 °F - 66.2 °F 78% 30.02 in 10.0 mi SE 5.8 mph - N/A   Clear
1:55 AM 73.4 °F - 68.0 °F 83% 30.02 in 10.0 mi SE 5.8 mph - N/A   Clear
2:15 AM 73.4 °F - 68.0 °F 83% 30.02 in 10.0 mi SSE 6.9 mph - N/A   Clear
2:35 AM 73.4 °F - 68.0 °F 83% 30.02 in 7.0 mi SSE 5.8 mph - N/A   Clear
2:55 AM 73.4 °F - 68.0 °F 83% 30.02 in 7.0 mi SSE 6.9 mph - N/A   Clear
3:15 AM 73.4 °F - 66.2 °F 78% 30.02 in 10.0 mi SSE 8.1 mph - N/A   Scattered Clouds
3:35 AM 73.4 °F - 66.2 °F 78% 30.02 in 10.0 mi SSE 6.9 mph - N/A   Clear
3:55 AM 73.4 °F - 66.2 °F 78% 30.02 in 10.0 mi SSE 5.8 mph - N/A   Clear
4:15 AM 71.6 °F - 66.2 °F 83% 30.05 in 10.0 mi SW 8.1 mph - N/A Rain Light Rain
4:35 AM 71.6 °F - 66.2 °F 83% 30.05 in 7.0 mi SSW 4.6 mph - N/A Rain Light Rain
4:55 AM 71.6 °F - 66.2 °F 83% 30.05 in 7.0 mi SSW 6.9 mph - 0.02 in Rain Light Rain
5:15 AM 71.6 °F - 66.2 °F 83% 30.05 in 10.0 mi South 8.1 mph - 0.01 in Rain Light Rain
5:35 AM 71.6 °F - 66.2 °F 83% 30.05 in 7.0 mi South 5.8 mph - 0.02 in Rain Rain
5:55 AM 71.6 °F - 66.2 °F 83% 30.06 in 7.0 mi Calm Calm - 0.07 in Rain Rain
6:15 AM 71.6 °F - 66.2 °F 83% 30.06 in 7.0 mi Calm Calm - N/A   Drizzle
6:35 AM 71.6 °F - 66.2 °F 83% 30.07 in 7.0 mi Calm Calm - 0.01 in Rain Light Rain
6:55 AM 71.6 °F - 66.2 °F 83% 30.09 in 5.0 mi Calm Calm - 0.03 in Rain Light Rain
7:15 AM 71.6 °F - 66.2 °F 83% 30.08 in 5.0 mi Calm Calm - 0.02 in Rain Rain
7:35 AM 71.6 °F - 66.2 °F 83% 30.09 in 5.0 mi East 3.5 mph - 0.10 in Rain Rain
7:55 AM 71.6 °F - 66.2 °F 83% 30.08 in 5.0 mi East 4.6 mph - 0.13 in Rain Rain
8:15 AM 71.6 °F - 66.2 °F 83% 30.07 in 5.0 mi SE 5.8 mph - 0.02 in Rain Light Rain
8:35 AM 71.6 °F - 66.2 °F 83% 30.07 in 4.0 mi ESE 4.6 mph - 0.03 in Rain Light Rain
8:55 AM 71.6 °F - 66.2 °F 83% 30.08 in 4.0 mi SE 4.6 mph - 0.05 in Rain Heavy Rain
9:15 AM 71.6 °F - 66.2 °F 83% 30.09 in 3.0 mi SSE 5.8 mph - 0.05 in Rain Heavy Rain
9:35 AM 71.6 °F - 68.0 °F 88% 30.06 in 5.0 mi SSE 11.5 mph - 0.13 in Rain Rain
9:55 AM 71.6 °F - 68.0 °F 88% 30.04 in 4.0 mi SE 9.2 mph - 0.13 in   Scattered Clouds
10:15 AM 71.6 °F - 68.0 °F 88% 30.04 in 7.0 mi SE 11.5 mph 17.3 mph N/A   Clear
10:35 AM 73.4 °F - 68.0 °F 83% 30.02 in 7.0 mi SSE 12.7 mph 16.1 mph N/A   Clear
10:55 AM 75.2 °F - 69.8 °F 83% 30.03 in 7.0 mi South 12.7 mph 18.4 mph N/A   Clear
11:15 AM 73.4 °F - 68.0 °F 83% 30.03 in 10.0 mi South 13.8 mph - N/A   Clear
11:35 AM 75.2 °F - 68.0 °F 78% 30.02 in 10.0 mi South 13.8 mph 18.4 mph N/A   Clear
11:55 AM 77.0 °F - 69.8 °F 78% 30.01 in 10.0 mi South 13.8 mph 19.6 mph N/A   Clear
12:15 PM 78.8 °F - 69.8 °F 74% 30.01 in 10.0 mi South 15.0 mph 21.9 mph N/A   Scattered Clouds
12:35 PM 78.8 °F - 69.8 °F 74% 30.00 in 10.0 mi South 16.1 mph 21.9 mph N/A   Clear
12:55 PM 80.6 °F 83.9 °F 69.8 °F 70% 29.99 in 10.0 mi South 19.6 mph 24.2 mph N/A   Clear
1:15 PM 80.6 °F 83.9 °F 69.8 °F 70% 29.99 in 10.0 mi South 19.6 mph 25.3 mph N/A   Clear
1:35 PM 82.4 °F 86.3 °F 69.8 °F 66% 29.99 in 10.0 mi South 19.6 mph 28.8 mph N/A   Clear
1:55 PM 84.2 °F 89.6 °F 71.6 °F 66% 29.98 in 10.0 mi South 20.7 mph 26.5 mph N/A   Clear
2:15 PM 82.4 °F 86.3 °F 69.8 °F 66% 29.98 in 10.0 mi South 18.4 mph 27.6 mph N/A   Clear
2:35 PM 86.0 °F 91.8 °F 71.6 °F 62% 29.98 in 10.0 mi South 17.3 mph 25.3 mph N/A   Clear
2:55 PM 86.0 °F 91.8 °F 71.6 °F 62% 29.98 in 10.0 mi South 23.0 mph 28.8 mph N/A   Clear
3:15 PM 86.0 °F 91.8 °F 71.6 °F 62% 29.98 in 10.0 mi South 17.3 mph 25.3 mph N/A   Clear
3:35 PM 87.8 °F 93.8 °F 71.6 °F 58% 29.98 in 10.0 mi South 20.7 mph 26.5 mph N/A   Clear
3:55 PM 87.8 °F 93.8 °F 71.6 °F 58% 29.97 in 10.0 mi South 23.0 mph 27.6 mph N/A   Clear
4:15 PM 87.8 °F 93.8 °F 71.6 °F 58% 29.97 in 10.0 mi South 19.6 mph 25.3 mph N/A   Clear
4:35 PM 87.8 °F 93.8 °F 71.6 °F 58% 29.97 in 10.0 mi South 16.1 mph 25.3 mph N/A   Clear
4:55 PM 87.8 °F 93.8 °F 71.6 °F 58% 29.97 in 10.0 mi South 18.4 mph 25.3 mph N/A   Clear
5:15 PM 87.8 °F 95.6 °F 73.4 °F 62% 29.97 in 10.0 mi South 18.4 mph 23.0 mph N/A   Clear
5:35 PM 87.8 °F 93.8 °F 71.6 °F 58% 29.97 in 10.0 mi South 19.6 mph 23.0 mph N/A   Clear
5:55 PM 87.8 °F 93.8 °F 71.6 °F 58% 29.97 in 10.0 mi South 16.1 mph 23.0 mph N/A   Clear
6:15 PM 84.2 °F 89.6 °F 71.6 °F 66% 29.97 in 10.0 mi South 16.1 mph 21.9 mph N/A   Clear
6:35 PM 84.2 °F 89.6 °F 71.6 °F 66% 29.97 in 10.0 mi South 15.0 mph 21.9 mph N/A   Clear
6:55 PM 84.2 °F 89.6 °F 71.6 °F 66% 29.97 in 10.0 mi South 13.8 mph 19.6 mph N/A   Clear
7:15 PM 84.2 °F 89.6 °F 71.6 °F 66% 29.97 in 10.0 mi South 17.3 mph - N/A   Clear
7:35 PM 82.4 °F 87.2 °F 71.6 °F 70% 29.97 in 10.0 mi South 12.7 mph 19.6 mph N/A   Clear
7:55 PM 82.4 °F 87.2 °F 71.6 °F 70% 29.97 in 10.0 mi South 9.2 mph 16.1 mph N/A   Clear
8:15 PM 82.4 °F 88.2 °F 73.4 °F 74% 29.97 in 10.0 mi South 9.2 mph - N/A   Clear
8:35 PM 82.4 °F 88.2 °F 73.4 °F 74% 29.97 in 10.0 mi South 11.5 mph - N/A   Clear
8:55 PM 80.6 °F 84.6 °F 71.6 °F 74% 29.99 in 10.0 mi South 9.2 mph - N/A   Clear
9:15 PM 80.6 °F 84.6 °F 71.6 °F 74% 29.99 in 10.0 mi South 10.4 mph 16.1 mph N/A   Clear
9:35 PM 78.8 °F - 71.6 °F 78% 29.99 in 10.0 mi South 11.5 mph - N/A   Clear
9:55 PM 80.6 °F 84.6 °F 71.6 °F 74% 29.99 in 10.0 mi South 12.7 mph 18.4 mph N/A   Clear
10:15 PM 80.6 °F 84.6 °F 71.6 °F 74% 30.00 in 10.0 mi South 12.7 mph 18.4 mph N/A   Clear
10:35 PM 80.6 °F 84.6 °F 71.6 °F 74% 30.00 in 10.0 mi South 11.5 mph 19.6 mph N/A   Clear
10:55 PM 80.6 °F 84.6 °F 71.6 °F 74% 30.00 in 10.0 mi South 11.5 mph 18.4 mph N/A   Clear
11:15 PM 80.6 °F 84.6 °F 71.6 °F 74% 30.00 in 10.0 mi South 16.1 mph 19.6 mph N/A   Clear
11:35 PM 78.8 °F - 71.6 °F 78% 30.01 in 10.0 mi South 15.0 mph 21.9 mph N/A   Clear
11:55 PM 78.8 °F - 69.8 °F 74% 30.01 in 10.0 mi South 16.1 mph - N/A   Clear